Other Public Products
Issued by NWS Charleston, SC

Current Version | Previous Version | Graphics & Text | Print | Product List | Glossary On
Versions: 1 2 3 4 5 6 7 8 9 10 11 12 13 14 15 16 17 18 19 20 21 22 23 24 25 26 27 28 29 30 31 32 33 34 35 36 37 38 39 40 41 42 43 44 45 46 47 48 49 50
746
FPUS82 KCHS 111211
OPUCHS

TEST...KCHS/KSAV Gateway Observations...TEST
National Weather Service Charleston SC
700 AM EST MON DEC 11 2017

NOTE: "fair" indicates few or no clouds below 12,000 feet with no
significant weather and/or obstructions to visibility.

SCZ050-WAZ558-NCZ071-TXZ119-213-PAZ071-DCZ001-FLZ074-172-MI076-
NYZ176-178-MAZ016-IL014-TNZ027-NJZ106-GAZ044-MD014-111300-

...Gateway Observations for Charleston International...

CITY           SKY/WX    TMP DP  RH WIND       PRES   REMARKS
Chas Airport   CLEAR     33  27  78 SW5       30.20R WCI  29
6HR MIN TEMP:  32; 6HR MAX TEMP:  37;

Seattle        PTCLDY    29  28  96 E6        30.32S FOG     WCI  23
6HR MIN TEMP:  29; 6HR MAX TEMP:  40;

Charlotte      CLEAR     29  24  82 S3        30.12S
6HR MIN TEMP:  27; 6HR MAX TEMP:  32;

Dallas DFW     PTCLDY    39  26  59 S3        30.23S
6HR MIN TEMP:  38; 6HR MAX TEMP:  51;

Dallas Love    CLEAR     39  29  67 CALM      30.25S
6HR MIN TEMP:  38; 6HR MAX TEMP:  49;

Philladelphia  CLOUDY    35  29  78 SW8       30.05R WCI  29
6HR MIN TEMP:  34; 6HR MAX TEMP:  37; 6HR PCP: TRACE;

Wash National  MOCLDY    36  29  75 SW3       30.08R
6HR MIN TEMP:  36; 6HR MAX TEMP:  38;

Baltimore      MOCLDY    36  27  69 W5        30.06R WCI  32
6HR MIN TEMP:  34; 6HR MAX TEMP:  37;

Miami          CLEAR     52  41  66 NW9       30.26S
6HR MIN TEMP:  52; 6HR MAX TEMP:  55;

Detroit        CLOUDY    26  17  68 CALM      30.04S
6HR MIN TEMP:  24; 6HR MAX TEMP:  28;

Newark         CLOUDY    32  26  78 SW9       30.02S WCI  24
6HR MIN TEMP:  32; 6HR MAX TEMP:  35;

Laguardia      MOCLDY    35  24  64 SW9       30.01S WCI  28
6HR MIN TEMP:  35; 6HR MAX TEMP:  37;

J F K          MOCLDY    33  29  85 SW15      30.04S WCI  23
6HR MIN TEMP:  33; 6HR MAX TEMP:  36; 6HR PCP: TRACE;

Boston Logan   CLOUDY    32  23  69 SW15      29.96R WCI  22
6HR MIN TEMP:  32; 6HR MAX TEMP:  33;

Ft. Lauderdale PTCLDY    49  40  71 NW8       30.26R
6HR MIN TEMP:  48; 6HR MAX TEMP:  52;

Chicago O`Hare CLOUDY    28  20  71 S10       29.96F WCI  19
6HR MIN TEMP:  23; 6HR MAX TEMP:  28; 6HR PCP: TRACE;

Chicago Midway CLOUDY    28  20  71 S10       29.99F WCI  19
6HR MIN TEMP:  26; 6HR MAX TEMP:  29; 6HR PCP: TRACE;

Houston Bush   CLEAR     44  36  73 SW6       30.32S
6HR MIN TEMP:  40; 6HR MAX TEMP:  48;

Houston Hobby  CLEAR     42  37  82 SW6       30.33S
6HR MIN TEMP:  39; 6HR MAX TEMP:  43;

Nashville      CLEAR     33  25  72 S3        30.15S
6HR MIN TEMP:  29; 6HR MAX TEMP:  43;

Atlanta        CLEAR     31  27  85 NW7       30.18S WCI  24
6HR MIN TEMP:  31; 6HR MAX TEMP:  35;


$$

GAZ044-118-TXZ119-213-NCZ071-DCZ001-MDZ014-506-PAZ021-071-NJZ106-
NYZ176-178-MAZ106-OHZ011-021-055-MIZ076-KYZ091-ILZ014-INZ047-
MNZ060-ONZ431-111300-

...Gateway Observations for Savannah International...

CITY           SKY/WX    TMP DP  RH WIND       PRES   REMARKS
Savannah Arpt  CLEAR     31  28  89 W5        30.25R WCI  26
6HR MIN TEMP:  31; 6HR MAX TEMP:  35;

Atlanta        CLEAR     31  27  85 NW7       30.18S WCI  24
6HR MIN TEMP:  31; 6HR MAX TEMP:  35;

Charlotte      CLEAR     29  24  82 S3        30.12S
6HR MIN TEMP:  27; 6HR MAX TEMP:  32;

Dallas DFW     PTCLDY    39  26  59 S3        30.23S
6HR MIN TEMP:  38; 6HR MAX TEMP:  51;

Houston Bush   CLEAR     44  36  73 SW6       30.32S
6HR MIN TEMP:  40; 6HR MAX TEMP:  48;

Wash National  MOCLDY    36  29  75 SW3       30.08R
6HR MIN TEMP:  36; 6HR MAX TEMP:  38;

Wash Dulles    MOCLDY    31  28  89 CALM      30.06R
6HR MIN TEMP:  30; 6HR MAX TEMP:  34;

Baltimore      MOCLDY    36  27  69 W5        30.06R WCI  32
6HR MIN TEMP:  34; 6HR MAX TEMP:  37;

Philadelphia   CLOUDY    35  29  78 SW8       30.05R WCI  29
6HR MIN TEMP:  34; 6HR MAX TEMP:  37; 6HR PCP: TRACE;

Newark         CLOUDY    32  26  78 SW9       30.02S WCI  24
6HR MIN TEMP:  32; 6HR MAX TEMP:  35;

Laguardia      MOCLDY    35  24  64 SW9       30.01S WCI  28
6HR MIN TEMP:  35; 6HR MAX TEMP:  37;

J F K          MOCLDY    33  29  85 SW15      30.04S WCI  23
6HR MIN TEMP:  33; 6HR MAX TEMP:  36; 6HR PCP: TRACE;

Boston         CLOUDY    32  23  69 SW15      29.96R WCI  22
6HR MIN TEMP:  32; 6HR MAX TEMP:  33;

Pittsburg      CLOUDY    32  20  61 W8        30.03R WCI  25
6HR MIN TEMP:  32; 6HR MAX TEMP:  33;

Akron          CLOUDY    29  17  61 W6        30.03R WCI  23
6HR MIN TEMP:  29; 6HR MAX TEMP:  31;

Cleveland      CLOUDY    30  20  66 W6        30.06F WCI  24
6HR MIN TEMP:  30; 6HR MAX TEMP:  32; 6HR PCP: TRACE;

Cincinnati     CLEAR     20  18  92 S3        30.08S
6HR MIN TEMP:  20; 6HR MAX TEMP:  29;

Columbus       CLOUDY    30  23  75 CALM      30.08S
Detroit        CLOUDY    26  17  68 CALM      30.04S
6HR MIN TEMP:  24; 6HR MAX TEMP:  28;

Chicago O`Hare CLOUDY    28  20  71 S10       29.96F WCI  19
6HR MIN TEMP:  23; 6HR MAX TEMP:  28; 6HR PCP: TRACE;

Minneapolis    CLOUDY    29  27  92 SE5       29.74F WCI  24
6HR MIN TEMP:  25; 6HR MAX TEMP:  29; 6HR PCP:  0.08;

Indianapolis   CLOUDY    26  22  84 S5        30.07R WCI  20
6HR MIN TEMP:  22; 6HR MAX TEMP:  26;

Toronto Canada FLURRIES  19  12  73 N6        30.00R WCI  11

$$




USA.gov is the U.S. government's official web portal to all federal, state and local government web resources and services.